Regional Weather Roundup
Issued by NWS Sterling, VA

Home | Current Version | Previous Version | Graphics & Text | Print | Product List | Glossary On
Versions: 1 2 3 4 5 6 7 8 9 10 11 12 13 14 15 16 17 18 19 20 21 22 23 24 25 26 27
000
ASUS41 KLWX 180611
RWRLWX

REGIONAL WEATHER ROUNDUP
NATIONAL WEATHER SERVICE BALTIMORE MD/WASHINGTON DC
100 AM EST THU JAN 18 2018

Note: "FAIR" indicates few or no clouds below 12,000 feet
with no significant weather and/or obstructions to visibility.
 TC=TEMPERATURE CELSIUS

 * =Non NWS site. Station does not report precipitation (e.g. rain,
    snow, etc.), thunder, or fog.

DCZ001-MDZ009-015-VAZ040>042-051-053>054-180700-
WASHINGTON METRO

CITY           SKY/WX    TMP DP  RH WIND       PRES   REMARKS
WASHINGTON NAT MOCLDY    19   6  57 N13G21    30.29F WCI   6
DULLES         FAIR      16   6  65 NW10      30.27F WCI   4
ANDREWS AFB    FAIR      18   6  59 NW16G23   30.24F WCI   3
FT BELVOIR     FAIR      19   4  52 NW9       30.28F WCI   8
COLLEGE PARK*  FAIR      18   5  57 NW6       30.27F WCI   9
LEESBURG*      FAIR      18  10  73 NW9       30.27F WCI   6
MANASSAS*      FAIR      16   7  67 N7        30.28F WCI   6
GAITHERSBURG*  FAIR      14   6  70 NW9       30.24F WCI   2

$$

MDZ006>007-011-014-180700-
BALTIMORE METRO

CITY           SKY/WX    TMP DP  RH WIND       PRES   REMARKS
BWI AIRPORT    MOCLDY    18   8  65 W7        30.25F WCI   9
MD SCIENCE CTR   N/A     21   7  54 MISG      30.26F
MARTIN STATE   FAIR      19  10  68 W6        30.27F WCI  11
ANNAPOLIS      FAIR      22  11  62 NW10      30.25F WCI  11
FORT MEADE*    MOCLDY    19  10  68 W6        30.29F WCI  11

$$

MDZ012-015-019>023-180700-
MARYLAND EASTERN SHORE

CITY           SKY/WX    TMP DP  RH WIND       PRES   REMARKS
OCEAN CITY     CLOUDY    24  12  60 N16G26    30.15  WCI  11
SALISBURY      MOCLDY    23  10  57 N18G25    30.17F WCI   9
BAY BRIDGE AP* FAIR      19  10  68 NW9       30.25F WCI   9
CAMBRIDGE*       N/A     23  10  58 NW15      30.23R WCI  10
EASTON*        FAIR      22  10  57 N13G22    30.26F WCI  10

$$

MDZ017>025-180700-
SOUTHERN MARYLAND

CITY           SKY/WX    TMP DP  RH WIND       PRES   REMARKS
PATUXENT RIVER NOT AVBL
ST INIGOES     MOCLDY    23   9  55 NW9G22    30.21F WCI  13
LEONARDTOWN*   CLOUDY    21   9  58 NW7G16    30.24F WCI  13

$$

MDZ003>005-180700-
NORTH CENTRAL MARYLAND

CITY           SKY/WX    TMP DP  RH WIND       PRES   REMARKS
FREDERICK*     FAIR      19   5  53 W6        30.28F WCI  11
HAGERSTOWN APT FAIR      13   4  67 SW6       30.25F WCI   4
WESTMINSTER*   FAIR      16   9  73 W8        30.20F WCI   5

$$

MDZ501>502-180700-
WESTERN MARYLAND

CITY           SKY/WX    TMP DP  RH WIND       PRES   REMARKS
OAKLAND*       CLOUDY     3   0  85 W12G17    30.12F WCI -13
CUMBERLAND*    FAIR      14   5  67 SE3       30.32F

$$

VAZ025>031-180700-
SHENANDOAH VALLEY

CITY           SKY/WX    TMP DP  RH WIND       PRES   REMARKS
WINCHESTER*    CLOUDY    19   5  53 NW10      30.27F WCI   8
FRONT ROYAL*   CLOUDY    19   5  53 E5        30.26F WCI  13
LURAY*         FAIR      19   5  53 W6        30.26F WCI  11
NEW MARKET*    FAIR      11   4  72 CALM      30.26F
STAUNTON*      FAIR      10   3  74 CALM      30.26F
WAYNESBORO*    CLOUDY    15   4  62 N6        30.22F WCI   6

$$

WVZ021-048>050-054>055-180700-
EASTERN WEST VIRGINIA PANHANDLE

CITY           SKY/WX    TMP DP  RH WIND       PRES   REMARKS
MARTINSBURG    FAIR      13   5  70 S3        30.26F
PETERSBURG*    FAIR       4   1  86 CALM      30.29F

$$

VAZ036>039-050-180700-
CENTRAL FOOTHILLS

CITY           SKY/WX    TMP DP  RH WIND       PRES   REMARKS
CHARLOTTESVILL FAIR      23   3  42 VRB5      30.22F WCI  17
CULPEPER*      FAIR      19   4  53 N5        30.26F WCI  12
ORANGE*        FAIR      18   7  62 CALM      30.24F
GORDONSVILLE*  FAIR      17   8  66 MISG      30.24F
WARRENTON*     FAIR      12   5  72 CALM      30.25F

$$

VAZ055>057-180700-
NORTH AND CENTRAL PIEDMONT

CITY           SKY/WX    TMP DP  RH WIND       PRES   REMARKS
FREDERICKSBRG* FAIR      20   8  61 N7        30.27F WCI  11
STAFFORD*      FAIR      18   7  62 N5        30.31F WCI  11

$$

NCZ024-NYZ072-PAZ021-071-VAZ022-071-180700-
OTHER REGIONAL OBSERVATIONS

CITY           SKY/WX    TMP DP  RH WIND       PRES   REMARKS
NEW YORK CITY  FAIR      21   9  59 NW8G20    30.15F WCI  11
PHILADELPHIA   FAIR      20   8  60 W8        30.22F WCI  10
PITTSBURGH     FAIR       8   3  80 SW9       30.28F WCI  -5
ROANOKE        FAIR      14   2  58 NW8       30.31F WCI   3
RICHMOND       MOCLDY    21   8  57 N22G30    30.20F WCI   5
RALEIGH        FLURRIES  23  20  88 NW8       30.24F WCI  14

$$

ANZ530>537-180700-
MARINE OBSERVATIONS

STATION/POSITION TIME  TEMP    WIND        PRES
                       AIR SEA DIR/SP/G
                 (UTC) (F)     (DEG/KT/KT) (MB)
THOMAS PT LIGHT  0600   20 31  310/ 13/ 15   N/A
BALT KEY BRIDGE  0548          290/ 12/ 14 1024.7F
COVE POINT       0548          350/ 23/ 27 1024.2F
LEWISETTA        0548          360/ 18/ 26 1022.9F
SOLOMONS ISLAND  0536          330/ 14/ 18 1023.7F
PINEY POINT      0548          360/ 24/ 27   N/A

$$





USA.gov is the U.S. government's official web portal to all federal, state and local government web resources and services.